Location: Beang
(6.6177°N, 10.9863°W)
Time: 11:10:52
(UTC+00:00)

Daily predictions for brighter satellites

Satellite Brightness Start Highest point End
(mag) Time Altitude Azimuth Time Altitude Azimuth Time Altitude Azimuth
ARIANE 5 R/B 4.1 17:29:20 10° WSW 17:33:10 58° S 17:58:00 10° E
Cosmos 1980 Rocket 3.7 18:41:35 10° NE 18:44:28 14° ENE 18:47:21 10° ESE
CZ-4B DEB 4.2 18:39:45 10° SSE 18:45:15 66° ENE 18:50:42 10° N
AQUARIUS 4.2 18:41:39 10° S 18:46:07 88° WSW 18:50:36 10° NNW
ARIANE 3 DEB 3.7 18:48:38 10° SW 18:50:19 19° S 18:52:11 10° ESE
Cosmos 1092 Rocket 4.4 18:48:20 10° N 18:54:35 70° W 19:00:48 10° S
ARGOS 3.9 18:50:23 10° SE 18:55:01 29° ENE 18:59:38 10° NNE
Meteor 1-27 Rocket 4.1 18:52:24 10° SSE 18:57:40 42° E 19:02:51 10° NNE
BLOCK DM-SL R/B 3.9 18:53:39 10° WSW 18:58:01 39° S 19:02:11 10° ESE
Sakura Rocket 4.3 18:53:04 10° NW 18:58:12 30° NNE 19:02:07 10° E
SWIFT 4.3 18:57:13 10° NNW 18:59:36 15° N 19:02:00 10° NE
NOSS 3-1 (C) 4.4 18:51:19 10° NNW 19:00:09 84° ENE 19:09:20 10° SSE
Cosmos 921 Rocket 4.2 18:56:21 10° SSW 19:00:18 42° W 19:04:15 10° N
Cosmos 44 3.4 18:56:37 10° NNW 19:00:56 67° WSW 19:05:08 10° SSE
YAOGAN 1 4.3 19:01:40 10° ESE 19:03:39 13° ENE 19:04:45 12° ENE
CZ-2D R/B 3.4 19:00:49 10° S 19:04:40 77° W 19:08:29 10° NNW
SL-27 R/B 4.3 19:05:43 10° SE 19:07:26 13° E 19:07:57 13° E
Meteor 2-15 Rocket 4.4 19:01:32 10° S 19:07:40 78° E 19:13:47 10° N
Meteor 2-16 Rocket 4.4 19:04:36 10° N 19:10:39 63° E 19:16:43 10° SSE
PAYLOAD B 4.4 19:09:36 10° S 19:15:12 80° WSW 19:20:48 10° NNW
CZ-4B R/B 3.1 19:12:01 10° SSE 19:17:32 68° ENE 19:22:56 10° N
Okean O Rocket 1.7 19:13:22 10° SSE 19:17:40 51° ENE 19:21:57 10° N
DMSP B5D2-2 4.1 19:14:47 10° N 19:20:00 86° WNW 19:25:16 10° SSW
CZ-4 R/B 2.7 19:17:41 10° SE 19:20:50 21° ENE 19:21:13 21° ENE
CZ-4B R/B 3.0 19:22:04 16° ESE 19:22:04 16° ESE 19:23:26 10° SE
IRAS Rocket 4.2 19:16:53 10° NNE 19:22:24 88° ESE 19:27:59 10° SSW
Cosmos 1633 Rocket 2.9 19:18:54 10° N 19:23:17 78° E 19:27:40 10° S
Cosmos 1833 4.2 19:20:22 10° S 19:25:54 60° ESE 19:30:39 14° NNE
CZ-4 R/B 4.3 19:22:02 10° SSE 19:26:06 67° ENE 19:30:10 10° N
Cosmos 2266 Rocket 4.4 19:20:49 10° NNE 19:26:46 41° E 19:32:43 10° SSE
BREEZE-M DEB (TANK) 2.1 19:29:47 10° SW 19:31:52 61° NW 19:32:54 31° NNE
H-2A R/B 3.1 19:27:19 10° S 19:32:29 49° WSW 19:37:32 10° NNW
Cosmos 1544 3.9 19:34:35 31° E 19:34:35 31° E 19:37:25 10° SSE
Cosmos 783 Rocket 4.5 19:29:19 10° S 19:34:32 67° ESE 19:38:31 17° NNE
Atlas Centaur 2 1.7 19:33:39 10° WNW 19:37:06 52° SSW 19:40:21 13° SE
GPS 2-12 Rocket1 3.8 19:38:10 10° W 19:42:19 37° NNW 19:43:41 30° NNE
Gbstr 26 Del rocket 3.8 19:37:58 10° SSW 19:44:52 74° SE 19:47:35 33° NE
Cosmos 1933 Rocket 4.0 19:47:13 39° ESE 19:47:13 39° ESE 19:50:52 10° SSE
Feng Yun 1-1 Rocket 4.3 19:41:39 10° SSE 19:47:29 64° ENE 19:53:19 10° N
GPS 2-14 Rocket1 4.0 19:45:52 10° W 19:49:24 35° SSW 19:51:38 19° SSE
Cosmos 773 Rocket 4.0 19:46:59 10° SSW 19:52:16 88° WNW 19:55:28 25° N
Cosmos 1470 Rocket 3.6 19:47:59 10° N 19:52:27 83° W 19:56:56 10° S
Meteor 1-11 Rocket 3.7 19:51:48 10° N 19:57:27 59° E 20:03:13 10° SSE
BLOCK DM-SL R/B 3.4 19:57:22 10° SW 19:59:35 32° SSE 20:00:09 30° SSE
Cosmos 2228 Rocket 3.5 19:56:38 10° SSW 20:00:59 61° W 20:03:31 23° NNW
ARIANE 5 DEB (SYLDA) 4.1 19:54:08 10° WSW 20:01:21 46° S 20:02:30 36° SE
SL-08 RB Rocket 4.2 19:56:50 10° S 20:01:26 60° WSW 20:06:00 10° NNW
ASTEX 1 4.2 19:58:24 10° SSE 20:01:26 33° SE 20:01:26 33° SE
Cosmos 1655 Rocket 4.1 19:56:58 10° N 20:03:17 79° W 20:09:35 10° S
ARIANE 5 R/B 3.9 20:07:25 10° W 20:11:18 78° S 20:13:30 43° ESE
USA 234 3.4 20:16:07 51° NE 20:16:07 51° NE 20:21:53 10° NNW
Meteor 1-19 Rocket 4.4 20:10:26 10° S 20:16:27 79° W 20:19:08 35° N
H-2A R/B 4.3 20:15:03 10° NNW 20:18:34 23° WNW 20:22:03 10° SW
H-2A R/B 3.6 20:18:48 10° S 20:21:24 36° SSW 20:21:24 36° SSW
DNEPR-1 R/B 4.3 20:17:28 10° SSW 20:23:08 59° WNW 20:23:46 54° NW
Cosmos 1553 Rocket 3.9 20:17:53 10° S 20:24:14 88° E 20:25:24 62° N
Hubble Space Telescope 3.2 20:24:09 10° SSW 20:25:31 16° S 20:25:31 16° S
Cosmos 1980 Rocket 3.5 20:23:07 10° NW 20:28:16 39° WSW 20:33:24 10° S
CZ-4C R/B 3.3 20:35:51 10° NNW 20:50:28 22° SSE 20:52:59 10° SSE
CZ-4 R/B 4.4 20:53:08 10° SW 20:55:32 15° W 20:57:12 12° WNW
ARIANE 5 DEB (SYLDA) 4.0 20:50:24 10° WSW 20:56:06 38° SSW 20:56:06 38° SSW
USA 215 4.2 21:07:28 39° SSW 21:07:28 39° SSW 21:11:24 10° SSW
Ariane H10+ 4.2 20:41:49 10° W 21:17:37 90° N 21:19:01 78° E
CZ-3B R/B 4.4 21:15:50 10° SW 21:21:42 34° SSW 21:21:42 34° SSW
Ariane H10-3 4.5 21:33:42 10° WSW 22:01:08 12° ESE 22:05:11 10° E
Ariane H10-3 4.5 21:33:42 10° WSW 22:01:08 12° ESE 22:05:12 10° E
Ariane H10-3 4.5 21:33:42 10° WSW 22:01:09 12° ESE 22:05:12 10° E
Ariane H10-3 4.5 21:33:42 10° WSW 22:01:09 12° ESE 22:05:11 10° E
Ariane H10-3 4.5 21:33:41 10° WSW 22:01:09 12° ESE 22:05:12 10° E
